[[{"header":{"parameterUnit":"m.s-1","parameterCategory":1,"la1":30.2991,"la2":30.254,"lo1":-89.0895,"lo2":-89.0444,"dy":0.0017,"dx":0.0017,"nx":28,"ny":28,"refTime":"2025-01-28T09:00:00:Z","depth":0,"parameterNumber":2,"parameterNumberName":"U-component_of_WINDS"},"data":[0,0,0,0,0,0,0,0,0,0,0,0,0,0,0,0,0,0,0,0,0,0,0,0,0,0,0,0,0,0,0,0,0,0,0,0,0,0,0,0,0,0,0,0,0,0,0,0,0,0,0,0,0,0,0,0,0,0,0.3075,0.3076,0,0.3103,0.3103,0.3104,0.3117,0.3117,0.3117,0.3117,0.3149,0.3149,0.315,0,0,0,0,0,0,0,0,0,0,0,0,0,0.3036,0.3037,0.3075,0.3076,0.3076,0.3103,0.3103,0.3104,0.3117,0.3117,0.3117,0.3117,0.3148,0.3149,0.315,0,0,0,0,0,0,0,0,0,0,0,0,0,0.3058,0.3037,0.3075,0.3086,0.3087,0.3103,0.3103,0.3104,0.3117,0.3117,0.3117,0.3117,0.3148,0.3149,0.315,0.3158,0,0,0.3154,0.3155,0,0,0,0,0,0,0,0,0.3056,0.3059,0.3084,0.3085,0.3087,0.3107,0.3101,0.3122,0.3117,0.3106,0.3117,0.3117,0.3135,0.3137,0.3142,0.316,0.3161,0.3154,0.3155,0.3156,0.3156,0,0,0,0,0,0,0,0.3055,0.3058,0.3086,0.3085,0.3086,0.309,0.3093,0.3105,0.312,0.3107,0.3108,0.3111,0.3136,0.3141,0.3143,0.3162,0.3154,0.3155,0.3156,0.3157,0.3185,0.3185,0,0,0,0,0,0,0.3051,0.3057,0.3086,0.3087,0.3071,0.3091,0.3094,0.31,0.312,0.3123,0.3111,0.3112,0.3139,0.3142,0.3144,0.3154,0.3156,0.3157,0.3158,0.3185,0.3185,0.3185,0,0,0,0,0,0,0.305,0.3054,0.3084,0.3072,0.3076,0.3091,0.3098,0.3101,0.3107,0.3123,0.3126,0.3114,0.3139,0.3143,0.3154,0.3156,0.3157,0.3159,0.3185,0.3185,0.3185,0.3174,0,0,0,0,0,0,0.3049,0.3053,0.3056,0.3072,0.3077,0.3093,0.3098,0.3101,0.3108,0.3109,0.3127,0.3129,0.3139,0.3152,0.3155,0.3157,0.316,0.3185,0.3185,0.3185,0.3175,0.3174,0.3173,0,0,0,0,0,0.3048,0.3053,0.3056,0.306,0.3081,0.3093,0.3096,0.3107,0.3108,0.3112,0.3122,0.3129,0.3155,0.3153,0.3157,0.3159,0.3185,0.3185,0.3185,0.3175,0.3174,0.3173,0,0,0,0,0,0,0.3039,0.3056,0.3059,0.307,0.308,0.3096,0.31,0.3106,0.3117,0.3117,0.3131,0.3134,0.3144,0.3153,0.3151,0.3167,0.3171,0.3171,0.3161,0.3161,0.316,0.3158,0.3161,0,0,0,0,0,0.3038,0.3046,0.306,0.3068,0.3073,0.3085,0.3091,0.3098,0.311,0.3115,0.3126,0.3137,0.3148,0.3155,0.3165,0.3175,0.3179,0.3179,0.3178,0.3177,0.3178,0.3183,0.3183,0.3185,0.3185,0.3185,0,0,0.3037,0.3046,0.3051,0.3067,0.3075,0.3084,0.3089,0.3098,0.3105,0.3116,0.3127,0.3136,0.3149,0.316,0.3165,0.3167,0.3178,0.3177,0.3177,0.3178,0.3183,0.3183,0.3183,0.3185,0.3185,0.3185,0,0,0.3038,0.3046,0.3053,0.3061,0.3074,0.3082,0.3083,0.3097,0.3103,0.3114,0.3122,0.313,0.3149,0.3157,0.3164,0.3167,0.3173,0.317,0.3167,0.3171,0.3171,0.3171,0.3172,0.3172,0.317,0.317,0.317,0,0.3035,0.3048,0.3057,0.3064,0.3071,0.308,0.3087,0.3094,0.311,0.3114,0.3116,0.3138,0.3148,0.316,0.316,0.3165,0.3167,0.3169,0.317,0.317,0.317,0.3171,0.3171,0.317,0.317,0.317,0.317,0,0.3043,0.3051,0.3055,0.3068,0.3075,0.3083,0.3093,0.3099,0.3104,0.3112,0.3123,0.3134,0.3147,0.315,0.3157,0.3163,0.3164,0.3168,0.3172,0.3169,0.317,0.3171,0.3169,0.3169,0.3169,0.317,0,0,0.3042,0.3058,0.3059,0.3065,0.3078,0.3085,0.3092,0.3103,0.3107,0.3117,0.3124,0.3138,0.3141,0.3149,0.3156,0.316,0.316,0.3163,0.3164,0.3162,0.3167,0.3164,0.3164,0.3164,0.3164,0.3164,0.3166,0,0.3045,0.3059,0.3066,0.3076,0.3084,0.3091,0.3097,0.3106,0.3113,0.312,0.3128,0.3138,0.3141,0.3146,0.315,0.3159,0.3161,0.3159,0.3171,0.3171,0.3168,0.3165,0.3162,0.3163,0.3166,0.3166,0.3166,0,0.3052,0.306,0.307,0.3081,0.3084,0.309,0.31,0.3107,0.3116,0.3121,0.3128,0.3135,0.3143,0.3145,0.3156,0.3154,0.3159,0.3164,0.3165,0.3167,0.3169,0.3167,0.3164,0.3164,0.3167,0.3167,0.3167,0,0.305,0.3063,0.3071,0.3075,0.3088,0.3091,0.3097,0.3107,0.3112,0.3121,0.3124,0.3134,0.314,0.3147,0.3156,0.3156,0.3166,0.3169,0.317,0.317,0.3173,0.3173,0.3171,0.3175,0.3175,0.3175,0.3175,0,0.3053,0.306,0.307,0.3075,0.3081,0.3089,0.3096,0.3102,0.311,0.3116,0.3123,0.3129,0.314,0.3147,0.3154,0.3162,0.3165,0.3169,0.3171,0.3169,0.3168,0.3173,0.3173,0.3175,0.3175,0.3175,0.3175,0,0.3053,0.306,0.3069,0.3079,0.3082,0.3086,0.3095,0.31,0.3106,0.3114,0.3116,0.3126,0.3135,0.3144,0.3156,0.3161,0.3168,0.3171,0.3165,0.3166,0.3166,0.3166,0.3168,0.3169,0.3172,0.3172,0.3172,0,0.3055,0.306,0.307,0.3074,0.3079,0.3085,0.309,0.3098,0.3103,0.3113,0.3117,0.3125,0.3133,0.3146,0.3155,0.3163,0.3166,0.3166,0.3168,0.3165,0.3166,0.3166,0.3166,0.3166,0.3166,0.3166,0.3166,0,0.3058,0.3061,0.3067,0.3074,0.308,0.3086,0.3093,0.3096,0.3105,0.311,0.3118,0.3123,0.3134,0.3143,0.3152,0.3158,0.3164,0.3165,0.3166,0.3164,0.316,0.3162,0.3164,0.3165,0.3165,0.3165,0.3165,0.3165,0.3059,0.3063,0.307,0.3077,0.3082,0.3088,0.3092,0.3098,0.3105,0.3114,0.3118,0.3125,0.3134,0.3146,0.3152,0.3158,0.316,0.3161,0.3162,0.3162,0.3161,0.3158,0.316,0.316,0.316,0.316,0.316,0,0.3063,0.3067,0.3073,0.3081,0.3086,0.3089,0.3096,0.31,0.3106,0.3113,0.3119,0.3128,0.3135,0.3144,0.3152,0.3155,0.3157,0.3157,0.3157,0.3158,0.3159,0.3158,0.3155,0.3155,0.3155,0.3155,0.3155,0.3155,0.3065,0.3072,0.3075,0.3084,0.3088,0.3095,0.3099,0.3104,0.3109,0.3117,0.3123,0.3128,0.3135,0.3143,0.315,0.3152,0.3155,0.3154,0.3157,0.3158,0.3158,0.3159,0.3158,0.3154,0.3154,0.3155,0.3155,0.3155]},{"header":{"parameterUnit":"m.s-1","parameterCategory":1,"la1":30.2991,"la2":30.254,"lo1":-89.0895,"lo2":-89.0444,"dy":0.0017,"dx":0.0017,"nx":28,"ny":28,"refTime":"2025-01-28T09:00:00:Z","depth":0,"parameterNumber":3,"parameterNumberName":"V-component_of_WINDS"},"data":[0,0,0,0,0,0,0,0,0,0,0,0,0,0,0,0,0,0,0,0,0,0,0,0,0,0,0,0,0,0,0,0,0,0,0,0,0,0,0,0,0,0,0,0,0,0,0,0,0,0,0,0,0,0,0,0,0,0,1.7492,1.7492,0,1.7457,1.7457,1.7456,1.7485,1.7486,1.7487,1.7488,1.7448,1.7446,1.7444,0,0,0,0,0,0,0,0,0,0,0,0,0,1.7579,1.7578,1.7492,1.7492,1.7492,1.7457,1.7457,1.7456,1.7485,1.7486,1.7488,1.7489,1.7449,1.7446,1.7443,0,0,0,0,0,0,0,0,0,0,0,0,0,1.7542,1.7577,1.7492,1.7502,1.7502,1.7457,1.7457,1.7456,1.7484,1.7486,1.7488,1.749,1.745,1.7446,1.7443,1.7386,0,0,1.7433,1.7431,0,0,0,0,0,0,0,0,1.7545,1.7539,1.7501,1.7501,1.7501,1.7477,1.7473,1.7433,1.7484,1.7491,1.7488,1.7491,1.7456,1.7452,1.7441,1.7384,1.7382,1.7433,1.7431,1.7429,1.7428,0,0,0,0,0,0,0,1.7547,1.7541,1.7478,1.75,1.7501,1.7506,1.7503,1.7465,1.7463,1.749,1.7492,1.7488,1.7456,1.7445,1.7441,1.7382,1.7433,1.743,1.7428,1.7426,1.7274,1.7272,0,0,0,0,0,0,1.7549,1.7543,1.748,1.7477,1.7528,1.7503,1.7499,1.7483,1.7464,1.7463,1.7487,1.749,1.7449,1.7445,1.7439,1.737,1.7429,1.7426,1.7424,1.7276,1.7274,1.7271,0,0,0,0,0,0,1.7551,1.7543,1.7481,1.7511,1.7503,1.75,1.7481,1.7482,1.747,1.7461,1.7461,1.7475,1.7451,1.7444,1.7399,1.7369,1.7425,1.7422,1.7278,1.7275,1.7272,1.7231,0,0,0,0,0,0,1.7553,1.7544,1.7523,1.751,1.7501,1.7442,1.7479,1.748,1.7465,1.7468,1.745,1.7449,1.7452,1.7404,1.7396,1.7365,1.7419,1.7281,1.7277,1.7273,1.7235,1.7227,1.722,0,0,0,0,0,1.7557,1.7512,1.7522,1.7514,1.7476,1.7441,1.7435,1.7441,1.7462,1.744,1.7435,1.745,1.7374,1.7399,1.739,1.7358,1.7283,1.7278,1.7274,1.7238,1.7228,1.722,0,0,0,0,0,0,1.7521,1.7511,1.7521,1.7472,1.7457,1.7445,1.7418,1.743,1.7408,1.7412,1.7418,1.7414,1.7366,1.7358,1.7386,1.7301,1.7332,1.7325,1.7308,1.7298,1.7291,1.7293,1.7416,0,0,0,0,0,1.7507,1.7481,1.7473,1.743,1.7423,1.7422,1.7406,1.7412,1.7396,1.7389,1.7381,1.7363,1.7335,1.7317,1.7291,1.7235,1.723,1.7208,1.7201,1.7195,1.7188,1.7156,1.7145,1.7256,1.7256,1.7256,0,0,1.7479,1.747,1.7453,1.7423,1.7412,1.7383,1.7416,1.7384,1.7362,1.7384,1.7341,1.7334,1.7315,1.7263,1.724,1.7255,1.7157,1.7189,1.7184,1.718,1.715,1.7139,1.713,1.7253,1.7253,1.7254,0,0,1.7411,1.7403,1.7366,1.7354,1.7338,1.7338,1.7329,1.7315,1.7312,1.7269,1.7284,1.7258,1.721,1.7195,1.7182,1.7109,1.7121,1.71,1.706,1.7028,1.7019,1.7012,1.6983,1.6973,1.7094,1.7094,1.7094,0,1.7377,1.7335,1.7345,1.7311,1.7297,1.7317,1.7278,1.7266,1.7241,1.723,1.7248,1.7188,1.7177,1.7121,1.7104,1.7093,1.7081,1.7101,1.702,1.7013,1.7005,1.6978,1.6968,1.7092,1.7092,1.7092,1.7092,0,1.7293,1.7264,1.7235,1.7212,1.7195,1.7158,1.716,1.7141,1.7149,1.7146,1.7101,1.7089,1.706,1.7048,1.7054,1.6992,1.7002,1.702,1.705,1.6992,1.6967,1.6957,1.7088,1.7089,1.709,1.709,0,0,1.72,1.7183,1.7172,1.7161,1.7145,1.7121,1.7086,1.7059,1.7041,1.7024,1.6992,1.6952,1.6968,1.6953,1.6958,1.693,1.6871,1.6952,1.6951,1.6935,1.6799,1.6784,1.6772,1.688,1.6878,1.6876,1.68,0,1.713,1.707,1.7077,1.7018,1.6989,1.7009,1.6977,1.6963,1.696,1.6934,1.693,1.69,1.6926,1.6916,1.689,1.6883,1.6843,1.6889,1.6848,1.6846,1.6849,1.6759,1.6743,1.6672,1.6791,1.6789,1.6788,0,1.704,1.702,1.6959,1.6946,1.6934,1.6906,1.6881,1.6857,1.6841,1.684,1.6823,1.6832,1.6795,1.6828,1.6774,1.6806,1.6789,1.6784,1.6781,1.6775,1.6812,1.6748,1.665,1.6638,1.6773,1.6774,1.6775,0,1.6976,1.6934,1.6891,1.6881,1.6866,1.6845,1.6837,1.6823,1.6806,1.6784,1.6773,1.6747,1.6731,1.671,1.6712,1.6736,1.6657,1.669,1.6653,1.6653,1.6633,1.6634,1.6527,1.6627,1.6627,1.6627,1.6627,0,1.6895,1.6856,1.6862,1.6835,1.6791,1.68,1.6756,1.675,1.6737,1.6708,1.6724,1.6696,1.6701,1.6673,1.6674,1.6629,1.6622,1.6619,1.6619,1.6616,1.6616,1.6604,1.6607,1.6624,1.6625,1.6626,1.6626,0,1.6814,1.6817,1.6771,1.6761,1.6757,1.6725,1.6715,1.6689,1.6688,1.6651,1.6643,1.664,1.6608,1.6608,1.6571,1.6572,1.6515,1.6522,1.652,1.6521,1.6482,1.6485,1.6362,1.6345,1.6458,1.6457,1.6456,0,1.6762,1.6732,1.6719,1.6701,1.6692,1.6664,1.6647,1.6654,1.6636,1.6615,1.659,1.656,1.6536,1.6483,1.6476,1.6448,1.6453,1.6412,1.6448,1.6446,1.6449,1.645,1.6446,1.6404,1.6402,1.6401,1.6401,0,1.6667,1.667,1.6646,1.6621,1.6601,1.6582,1.6565,1.6549,1.6554,1.6532,1.65,1.6482,1.6444,1.6413,1.6385,1.6376,1.6387,1.639,1.6379,1.6374,1.6373,1.6371,1.6498,1.6392,1.6393,1.6393,1.6394,1.6394,1.6597,1.6571,1.6557,1.6529,1.6517,1.65,1.6475,1.6471,1.6445,1.6416,1.6422,1.6385,1.6368,1.6333,1.6321,1.6291,1.6305,1.629,1.6286,1.6281,1.6276,1.6381,1.6286,1.6286,1.6287,1.6287,1.6287,0,1.65,1.6493,1.6467,1.6443,1.642,1.6437,1.6418,1.6398,1.6366,1.635,1.6326,1.6288,1.6258,1.625,1.622,1.6198,1.6202,1.6189,1.619,1.6187,1.6266,1.6277,1.6186,1.6186,1.6186,1.6186,1.6186,1.6186,1.6447,1.6404,1.6405,1.6355,1.6347,1.6313,1.63,1.6284,1.6272,1.6229,1.6205,1.62,1.6186,1.6156,1.6128,1.6126,1.6113,1.6097,1.6097,1.6171,1.6181,1.6191,1.6201,1.6095,1.6095,1.602,1.6019,1.6019]}]]